Home   Weather   Umm al-Quwain   Past weeks

Flag for United Arab Emirates Past Weather in Umm al-Quwain, Umm al-Quwain, United Arab Emirates — Yesterday and Last 2 Weeks

Now
72 °F

Scattered clouds.


Feels Like: 77 °F
Forecast: 61 / 70 °F
Wind: 14 mph from West

Location: Sharjah International Airport

Current Time: Jan 24, 2017 at 11:23:21 am

Latest Report: Jan 24, 2017 at 11:00 am


Visibility: N/A

Pressure: 30.09 "Hg

Humidity: 53%

Dew Point: 54 °F

Location of Umm al-QuwainLocation

Past Weather in Umm al-Quwain — Graph

°F

Umm al-Quwain Temperature Yesterday

Maximum temperature yesterday: 82 °F (at 1:00 pm)
Minimum temperature yesterday: 70 °F (at 2:00 am)
Average temperature yesterday: 74 °F

High & Low Weather Summary for the Past Weeks

 TemperatureHumidityPressure
High84 °F (Jan 21, 1:00 pm)100% (Jan 12, 8:00 am)30.15 "Hg (Jan 12, 8:00 am)
Low52 °F (Jan 16, 6:00 am)31% (Jan 21, 1:00 pm)29.83 "Hg (Jan 13, 2:00 pm)
Average69 °F65%30.03 "Hg
* Reported Jan 9 10:00 am — Jan 24 10:00 am, Umm al-Quwain, Weather by CustomWeather, © 2017

Note: Actual official high and low records may vary slightly from our data, if they occured in-between our weather recording intervals... More about our weather records

Advertising

Umm al-Quwain Weather History for the Previous 24 Hours

Scroll right to see more
 ConditionsComfort  
Time TempWeatherWind HumidityBarometerVisibility
10:00 am
Tue, Jan 24
72 °FScattered clouds.12 mph53%30.09 "HgN/A
9:00 am70 °FScattered clouds.12 mph57%30.07 "HgN/A
8:00 am70 °FScattered clouds.8 mph57%30.04 "HgN/A
7:00 am70 °FClear.10 mph57%30.04 "Hg10 mi
6:00 am70 °FClear.8 mph57%30.01 "Hg10 mi
5:00 am70 °FClear.6 mph57%29.98 "Hg10 mi
4:00 am70 °FPassing clouds.8 mph53%29.98 "HgN/A
3:00 am70 °FClear.5 mph57%29.98 "Hg10 mi
2:00 am70 °FClear.7 mph60%30.01 "Hg10 mi
1:00 am70 °FPassing clouds.5 mph69%30.01 "HgN/A
12:00 am72 °FClear.6 mph65%30.01 "Hg10 mi
11:00 pm
Mon, Jan 23
72 °FPassing clouds.3 mph69%30.04 "HgN/A
10:00 pm72 °FClear.9 mph69%30.04 "Hg10 mi
9:00 pm73 °FClear.10 mph69%30.04 "Hg10 mi
8:00 pm70 °FClear.12 mph83%30.04 "Hg10 mi
7:00 pm73 °FClear.13 mph78%30.01 "Hg10 mi
6:00 pm73 °FClear.12 mph78%29.98 "Hg10 mi
5:00 pm75 °FSunny.14 mph69%29.98 "Hg10 mi
4:00 pm77 °FScattered clouds.16 mph61%29.98 "Hg5 mi
3:00 pm81 °FPassing clouds.18 mph48%29.98 "Hg5 mi
2:00 pm81 °FPartly sunny.21 mph42%29.98 "Hg4 mi
1:00 pm82 °FPartly sunny.20 mph42%30.01 "Hg4 mi
12:00 pm79 °FScattered clouds.14 mph54%30.04 "Hg4 mi
11:00 am79 °FBroken clouds.17 mph51%30.07 "Hg4 mi
Weather by CustomWeather, © 2017

See weather overviewHow to use our weather pages